LKMT Weather Reports


Display with metric or nautical units.
time (UTC)temp
F
wind
direction
speed
MPH
gust
MPH
rain 1hr
in
rain 24hr
in
rain mn
in
humidity
%
barometer
mb
20260901030238 59 230 12.0 0.0 0.00 0.00 0.00 82 1017.0
20260901023223 57 240 8.0 0.0 0.00 0.00 0.00 87 1016.0
20260901022426 61 240 9.0 0.0 0.00 0.00 0.00 82
20260901020234 57 240 9.0 0.0 0.00 0.00 0.00 87 1016.0
20260901013224 59 230 9.0 0.0 0.00 0.00 0.00 87 1016.0
20260901012429 63 220 5.0 0.0 0.00 0.00 0.00 77
20260901010233 63 220 3.0 0.0 0.00 0.00 0.00 82 1017.0
20260901003224 64 240 3.0 0.0 0.00 0.00 0.00 77 1017.0
20260901002210 64 0 5.0 0.0 0.00 0.00 0.00 72
20260901000226 66 250 5.0 0.0 0.00 0.00 0.00 68 1017.0
20260831233223 61 240 7.0 0.0 0.00 0.00 0.00 87 1017.0
20260831232326 63 230 7.0 0.0 0.00 0.00 0.00 82
20260831230231 61 240 7.0 0.0 0.00 0.00 0.00 87 1017.0
20260831223224 61 210 5.0 0.0 0.00 0.00 0.00 87 1017.0
20260831222524 61 240 5.0 0.0 0.00 0.00 0.00 93
20260831220234 61 250 5.0 0.0 0.00 0.00 0.00 87 1017.0
20260831213224 64 200 6.0 0.0 0.00 0.00 0.00 82 1017.0
20260831212210 66 190 5.0 0.0 0.00 0.00 0.00 77
20260831210236 66 190 5.0 0.0 0.00 0.00 0.00 77 1016.0
20260831203223 64 230 2.0 0.0 0.00 0.00 0.00 82 1016.0
20260831202355 66 0 2.0 0.0 0.00 0.00 0.00 77
20260831200233 66 210 3.0 0.0 0.00 0.00 0.00 72 1016.0
20260831193224 68 210 2.0 0.0 0.00 0.00 0.00 68 1016.0
20260831192357 70 0 2.0 0.0 0.00 0.00 0.00 68
20260831190231 70 0 1.0 0.0 0.00 0.00 0.00 64 1015.0
20260831183231 70 0 2.0 0.0 0.00 0.00 0.00 68 1015.0
20260831182157 68 270 5.0 0.0 0.00 0.00 0.00 72
20260831180232 70 270 6.0 0.0 0.00 0.00 0.00 68 1015.0
20260831173231 72 280 7.0 0.0 0.00 0.00 0.00 64 1015.0
20260831172355 75 280 7.0 0.0 0.00 0.00 0.00 57
20260831170233 75 270 6.0 0.0 0.00 0.00 0.00 57 1015.0
20260831163231 77 240 7.0 0.0 0.00 0.00 0.00 57 1014.0
20260831162458 77 230 7.0 0.0 0.00 0.00 0.00 53
20260831160236 75 220 7.0 0.0 0.00 0.00 0.00 60 1014.0
20260831153230 79 230 9.0 0.0 0.00 0.00 0.00 54 1014.0
20260831152215 79 220 9.0 0.0 0.00 0.00 0.00 50
20260831150239 79 220 10.0 0.0 0.00 0.00 0.00 50 1014.0
20260831143231 77 220 13.0 0.0 0.00 0.00 0.00 57 1015.0
20260831142256 75 220 14.0 0.0 0.00 0.00 0.00 57
20260831140233 79 230 12.0 0.0 0.00 0.00 0.00 50 1015.0
20260831133231 79 230 12.0 0.0 0.00 0.00 0.00 50 1015.0
20260831132255 75 240 16.0 0.0 0.00 0.00 0.00 57
20260831130236 75 240 16.0 0.0 0.00 0.00 0.00 53 1015.0
20260831123231 75 250 15.0 0.0 0.00 0.00 0.00 57 1015.0
20260831122213 75 260 18.0 0.0 0.00 0.00 0.00 60
20260831120233 75 260 17.0 0.0 0.00 0.00 0.00 60 1015.0
20260831115804 75 260 18.0 0.0 0.00 0.00 0.00 60 1015.0
20260831113230 77 250 17.0 0.0 0.00 0.00 0.00 53 1014.0
20260831112256 79 240 18.0 0.0 0.00 0.00 0.00 54
20260831110238 79 230 17.0 0.0 0.00 0.00 0.00 50 1014.0
20260831105204 79 230 14.0 0.0 0.00 0.00 0.00 54 1014.0
20260831103230 75 240 9.0 0.0 0.00 0.00 0.00 57 1014.0
20260831102458 75 250 7.0 0.0 0.00 0.00 0.00 57
20260831100235 75 250 7.0 0.0 0.00 0.00 0.00 57 1014.0
20260831095805 77 250 7.0 0.0 0.00 0.00 0.00 53 1014.0
20260831093230 73 260 5.0 0.0 0.00 0.00 0.00 64 1014.0
20260831092244 73 270 5.0 0.0 0.00 0.00 0.00 69
20260831090234 73 270 5.0 0.0 0.00 0.00 0.00 64 1014.0
20260831083231 73 270 3.0 0.0 0.00 0.00 0.00 64 1014.0
20260831082416 73 0 2.0 0.0 0.00 0.00 0.00 60
20260831080246 72 0 0.0 0.0 0.00 0.00 0.00 64 1014.0
20260831073231 70 0 2.0 0.0 0.00 0.00 0.00 68 1014.0
20260831072904 70 0 2.0 0.0 0.00 0.00 0.00 68 1014.0
20260831072400 68 200 2.0 0.0 0.00 0.00 0.00 68
20260831070234 66 210 3.0 0.0 0.00 0.00 0.00 72 1015.0
20260831063238 64 250 5.0 0.0 0.00 0.00 0.00 77 1015.0
20260831062259 63 210 5.0 0.0 0.00 0.00 0.00 82
20260831060240 63 220 5.0 0.0 0.00 0.00 0.00 82 1015.0
20260831053224 64 210 5.0 0.0 0.00 0.00 0.00 77 1015.0
20260831052412 63 0 2.0 0.0 0.00 0.00 0.00 82
20260831050239 63 0 1.0 0.0 0.00 0.00 0.00 82 1015.0
20260831043230 61 0 1.0 0.0 0.00 0.00 0.00 82 1015.0
20260831042457 63 190 2.0 0.0 0.00 0.00 0.00 77
20260831040235 61 190 3.0 0.0 0.00 0.00 0.00 82 1015.0
20260831033231 59 260 3.0 0.0 0.00 0.00 0.00 87 1015.0
20260831032156 59 260 5.0 0.0 0.00 0.00 0.00 82